TimeEDT,TemperatureF,Dew PointF,Humidity,Sea Level PressureIn,VisibilityMPH,Wind Direction,Wind SpeedMPH,Gust SpeedMPH,PrecipitationIn,Events,Conditions,WindDirDegrees,DateUTC
12:54 AM,61.0,55.0,81,30.07,10.0,SSE,3.5,-,N/A,,Overcast,150,2013-10-05 04:54:00
1:54 AM,60.1,55.0,83,30.08,10.0,Calm,Calm,-,N/A,,Scattered Clouds,0,2013-10-05 05:54:00
2:54 AM,60.1,55.9,86,30.07,10.0,ESE,3.5,-,N/A,,Overcast,120,2013-10-05 06:54:00
3:54 AM,61.0,55.0,81,30.06,10.0,Calm,Calm,-,N/A,,Overcast,0,2013-10-05 07:54:00
4:54 AM,61.0,54.0,78,30.07,10.0,Calm,Calm,-,N/A,,Overcast,0,2013-10-05 08:54:00
5:54 AM,61.0,55.0,81,30.08,10.0,East,3.5,-,N/A,,Overcast,100,2013-10-05 09:54:00
6:54 AM,61.0,55.9,83,30.10,10.0,Calm,Calm,-,N/A,,Mostly Cloudy,0,2013-10-05 10:54:00
7:54 AM,62.1,55.9,80,30.11,10.0,NNE,4.6,-,N/A,,Mostly Cloudy,20,2013-10-05 11:54:00
8:54 AM,62.1,55.9,80,30.12,10.0,NNE,5.8,-,N/A,,Mostly Cloudy,20,2013-10-05 12:54:00
9:54 AM,63.0,55.0,75,30.12,10.0,East,4.6,-,N/A,,Mostly Cloudy,80,2013-10-05 13:54:00
10:54 AM,64.0,54.0,70,30.11,10.0,East,3.5,-,N/A,,Overcast,100,2013-10-05 14:54:00
11:54 AM,64.9,54.0,68,30.10,10.0,SE,5.8,-,N/A,,Mostly Cloudy,140,2013-10-05 15:54:00
12:54 PM,66.9,52.0,59,30.09,10.0,East,8.1,-,N/A,,Scattered Clouds,100,2013-10-05 16:54:00
1:54 PM,66.9,53.1,61,30.08,10.0,SE,8.1,-,N/A,,Mostly Cloudy,140,2013-10-05 17:54:00
2:54 PM,66.0,52.0,60,30.08,10.0,East,8.1,-,N/A,,Overcast,90,2013-10-05 18:54:00
3:54 PM,64.9,57.0,75,30.08,10.0,ENE,9.2,-,N/A,,Scattered Clouds,70,2013-10-05 19:54:00
4:54 PM,64.0,57.0,78,30.09,10.0,ENE,8.1,-,N/A,,Mostly Cloudy,70,2013-10-05 20:54:00
5:54 PM,62.1,57.0,84,30.09,10.0,ENE,9.2,-,N/A,,Mostly Cloudy,70,2013-10-05 21:54:00
6:54 PM,61.0,55.9,83,30.10,10.0,East,8.1,-,N/A,,Overcast,80,2013-10-05 22:54:00
7:54 PM,61.0,55.0,81,30.11,10.0,NE,5.8,-,N/A,,Overcast,50,2013-10-05 23:54:00
8:54 PM,61.0,55.0,81,30.12,10.0,NE,4.6,-,N/A,,Overcast,40,2013-10-06 00:54:00
9:54 PM,61.0,55.9,83,30.12,10.0,East,4.6,-,N/A,,Overcast,90,2013-10-06 01:54:00
10:54 PM,61.0,55.9,83,30.13,10.0,Calm,Calm,-,N/A,,Overcast,0,2013-10-06 02:54:00
11:54 PM,61.0,55.9,83,30.13,10.0,Calm,Calm,-,N/A,,Overcast,0,2013-10-06 03:54:00